Pompano Beach, FL

7:42 AM EDT on May 25, 2018 (GMT -0400)
Pompano Beach

Weather History for KPMP - June, 2013

Change the Weather History Date:

Thursday, June 6, 2013

  Actual Average Record
Temperature  
Mean Temperature 80 °F -  
Max Temperature 87 °F 89 °F 95 °F (1991)
Min Temperature 75 °F 72 °F 60 °F (1975)
Cooling Degree Days 16    
Growing Degree Days 30 (Base 50)    
Moisture  
Dew Point 78 °F    
Average Humidity 93    
Maximum Humidity 100    
Minimum Humidity 77    
Precipitation  
Precipitation 0.55 in - - ()
Sea Level Pressure  
Sea Level Pressure 29.85 in    
Wind  
Wind Speed 15 mph (SSE)    
Max Wind Speed 22 mph    
Max Gust Speed 34 mph    
Visibility 8 miles    
Events Rain , Thunderstorm    
Averages and records for this station are not official NWS values.
T = Trace of Precipitation, MM = Missing Value Source: NWS Daily Summary

Daily Weather History Graph

Daily Weather History Graph

Search for Another Location

Airport or City:

Astronomy

Jun. 06, 2013 Rise Set
Actual Time 6:27 AM EDT 8:11 PM EDT
Civil Twilight 6:01 AM EDT 8:37 PM EDT
Nautical Twilight 5:30 AM EDT 9:08 PM EDT
Astronomical Twilight 4:57 AM EDT 9:41 PM EDT
Moon 4:58 AM EDT (6/6) 6:38 PM EDT (6/6)
Length of Visible Light 14h 35m
Length of Day
13h 43m
Waning Crescent, 4% of the Moon is Illuminated
Jun 6
Waning Crescent
Jun 8
New
Jun 16
First Quarter
Jun 23
Full
Jun 30
Last Quarter

Hourly Weather History & Observations

Time (EDT) Temp. Heat Index Dew Point Humidity Pressure Visibility Wind Dir Wind Speed Gust Speed Precip Events Conditions
12:53 AM 81.0 °F 88.6 °F 78.1 °F 91% 29.92 in 10.0 mi ESE 13.8 mph 21.9 mph N/A   Mostly Cloudy
1:53 AM 81.0 °F 87.9 °F 77.0 °F 88% 29.89 in 10.0 mi ESE 13.8 mph 24.2 mph N/A   Partly Cloudy
2:44 AM 80.6 °F 88.1 °F 78.8 °F 94% 29.87 in 10.0 mi ESE 18.4 mph 25.3 mph N/A   Mostly Cloudy
2:53 AM 81.0 °F 88.6 °F 78.1 °F 91% 29.87 in 10.0 mi ESE 17.3 mph - N/A   Mostly Cloudy
3:05 AM 80.6 °F 88.1 °F 78.8 °F 94% 29.86 in 10.0 mi ESE 12.7 mph - N/A   Mostly Cloudy
3:19 AM 80.6 °F 88.1 °F 78.8 °F 94% 29.86 in 10.0 mi ESE 15.0 mph - 0.00 in Rain Light Rain
3:42 AM 80.6 °F 88.1 °F 78.8 °F 94% 29.84 in 10.0 mi SE 18.4 mph 25.3 mph 0.00 in Rain Light Rain
3:53 AM 80.1 °F 86.7 °F 79.0 °F 96% 29.85 in 9.0 mi SE 19.6 mph 25.3 mph 0.00 in Rain Light Rain
4:19 AM 80.6 °F 88.1 °F 78.8 °F 94% 29.84 in 8.0 mi ESE 18.4 mph 31.1 mph 0.02 in Rain Light Rain
4:30 AM 80.6 °F 88.1 °F 78.8 °F 94% 29.85 in 9.0 mi SE 15.0 mph 21.9 mph 0.02 in Rain Light Rain
4:53 AM 80.1 °F 86.7 °F 79.0 °F 96% 29.85 in 8.0 mi SE 17.3 mph 26.5 mph 0.04 in Rain Light Rain
5:53 AM 79.0 °F - 79.0 °F 100% 29.83 in 4.0 mi SE 18.4 mph 34.5 mph 0.17 in Rain Light Rain
6:48 AM 78.8 °F - 78.8 °F 100% 29.82 in 8.0 mi SE 15.0 mph - 0.02 in Rain Light Rain
6:53 AM 79.0 °F - 79.0 °F 100% 29.83 in 8.0 mi SSE 17.3 mph 25.3 mph 0.02 in Rain Light Rain
7:18 AM 80.6 °F 88.1 °F 78.8 °F 94% 29.83 in 1.2 mi SSE 20.7 mph 27.6 mph 0.11 in Rain Light Rain
7:28 AM 75.2 °F - 75.2 °F 100% 29.83 in 2.0 mi SE 13.8 mph 27.6 mph 0.14 in Rain Light Rain
7:35 AM 77.0 °F - 77.0 °F 100% 29.83 in 4.0 mi SSE 8.1 mph 19.6 mph 0.14 in Rain Light Rain
7:44 AM 78.8 °F - 78.8 °F 100% 29.83 in 5.0 mi SSE 11.5 mph - 0.14 in Rain , Thunderstorm Light Rain
7:53 AM 80.1 °F 85.8 °F 77.0 °F 90% 29.83 in 8.0 mi SSE 15.0 mph 23.0 mph 0.14 in   Mostly Cloudy
8:33 AM 80.6 °F 89.3 °F 80.6 °F 100% 29.86 in 9.0 mi SSE 11.5 mph - N/A   Overcast
8:43 AM 80.6 °F 89.3 °F 80.6 °F 100% 29.86 in 9.0 mi SSE 11.5 mph 19.6 mph N/A   Overcast
8:53 AM 81.0 °F 89.9 °F 80.1 °F 97% 29.86 in 9.0 mi SSE 13.8 mph 21.9 mph N/A   Overcast
9:53 AM 82.0 °F 91.6 °F 79.0 °F 90% 29.88 in 9.0 mi South 13.8 mph 20.7 mph N/A   Mostly Cloudy
10:53 AM 84.0 °F 97.3 °F 80.1 °F 88% 29.88 in 10.0 mi South 16.1 mph 24.2 mph N/A   Scattered Clouds
11:53 AM 84.9 °F 97.5 °F 79.0 °F 82% 29.88 in 10.0 mi South 18.4 mph 31.1 mph N/A   Scattered Clouds
12:53 PM 86.0 °F 99.3 °F 79.0 °F 79% 29.86 in 10.0 mi South 21.9 mph 31.1 mph N/A   Mostly Cloudy
1:53 PM 84.9 °F 96.6 °F 78.1 °F 80% 29.85 in 10.0 mi South 18.4 mph 33.4 mph N/A   Mostly Cloudy
2:53 PM 86.0 °F 98.3 °F 78.1 °F 77% 29.82 in 10.0 mi SSE 21.9 mph 34.5 mph N/A   Mostly Cloudy
3:53 PM 82.9 °F 92.8 °F 78.1 °F 85% 29.81 in 10.0 mi South 11.5 mph 19.6 mph 0.04 in Rain Light Rain
4:53 PM 84.9 °F 95.3 °F 77.0 °F 77% 29.80 in 10.0 mi SW 13.8 mph 18.4 mph 0.00 in Rain Light Rain
5:38 PM 78.8 °F - 73.4 °F 83% 29.82 in 10.0 mi West 17.3 mph 32.2 mph 0.00 in Rain Light Rain
5:53 PM 77.0 °F - 75.0 °F 94% 29.83 in 4.0 mi SSW 10.4 mph - 0.03 in Rain Light Rain
6:53 PM 75.9 °F - 75.0 °F 97% 29.83 in 9.0 mi SSE 8.1 mph - 0.07 in Rain Light Rain
7:53 PM 75.0 °F - 75.0 °F 100% 29.84 in 9.0 mi SSE 10.4 mph - 0.03 in Rain Light Rain
8:53 PM 75.9 °F - 75.9 °F 100% 29.86 in 10.0 mi South 12.7 mph 20.7 mph 0.00 in   Partly Cloudy
9:53 PM 75.9 °F - 75.9 °F 100% 29.87 in 10.0 mi SSW 6.9 mph - 0.00 in Rain Light Rain
10:53 PM 75.9 °F - 75.9 °F 100% 29.88 in 10.0 mi SSW 5.8 mph - 0.01 in   Clear
11:53 PM 75.9 °F - 75.0 °F 97% 29.86 in 10.0 mi SSW 4.6 mph - N/A   Clear